VTK501 USSS-UNNT

Flight info

Callsign VTK501
Flight time 1h 57m
Altitude 39000
Route ANATU6C ANATU P135 GIBUL P983 TINRI T448 RUBOR A300 ML R814 SZ W1 GOLIM GOLIM1K
Aircraft A388/J-SADE2E3FGHIJ3J4J5M1RWXY/LB1D1

Departure

Time 2026-05-06 10:01
Airport Koltsovo Airport (USSS)

Arrival

Time 2026-05-06 11:59
Airport Novosibirsk Tolmachevo Airport (UNNT)
Time Latitude Longitude Altitude Speed Heading
2026-05-06 09:42 56.74771 60.81027 780 ft 0 kts 179°
2026-05-06 09:54 56.74772 60.81027 780 ft 2 kts 179°
2026-05-06 09:54 56.74796 60.81028 780 ft 4 kts 180°
2026-05-06 09:54 56.74822 60.81027 780 ft 4 kts 173°
2026-05-06 09:55 56.74848 60.81018 780 ft 4 kts 167°
2026-05-06 09:55 56.74874 60.81006 780 ft 4 kts 163°
2026-05-06 09:55 56.74891 60.80996 780 ft 1 kts 162°
2026-05-06 09:58 56.74878 60.81005 780 ft 2 kts 139°
2026-05-06 09:58 56.74867 60.81053 780 ft 8 kts 105°
2026-05-06 09:59 56.74857 60.81202 780 ft 15 kts 91°
2026-05-06 09:59 56.74856 60.81427 780 ft 20 kts 90°
2026-05-06 09:59 56.74857 60.81710 780 ft 24 kts 90°
2026-05-06 09:59 56.74818 60.82012 780 ft 25 kts 116°
2026-05-06 10:00 56.74732 60.82173 780 ft 13 kts 175°
2026-05-06 10:00 56.74625 60.82188 780 ft 18 kts 177°
2026-05-06 10:00 56.74497 60.82187 780 ft 9 kts 208°
2026-05-06 10:00 56.74480 60.82127 780 ft 18 kts 256°
2026-05-06 10:01 56.74472 60.81593 780 ft 80 kts 270°
2026-05-06 10:01 56.74479 60.80154 780 ft 143 kts 270°
2026-05-06 10:01 56.74489 60.78184 1051 ft 161 kts 272°
2026-05-06 10:01 56.74499 60.76156 1638 ft 160 kts 272°
2026-05-06 10:02 56.74495 60.74125 2198 ft 161 kts 272°
2026-05-06 10:02 56.74490 60.72051 2629 ft 170 kts 272°
2026-05-06 10:02 56.74487 60.69810 2825 ft 186 kts 272°
2026-05-06 10:02 56.74485 60.67318 3109 ft 213 kts 272°
2026-05-06 10:03 56.74485 60.64486 3613 ft 235 kts 272°
2026-05-06 10:03 56.74444 60.61385 4146 ft 257 kts 263°
2026-05-06 10:03 56.73827 60.58358 4959 ft 267 kts 238°
2026-05-06 10:03 56.72450 60.55965 5893 ft 276 kts 211°
2026-05-06 10:04 56.70621 60.54944 6732 ft 284 kts 184°
2026-05-06 10:04 56.68660 60.55492 7601 ft 289 kts 156°
2026-05-06 10:04 56.67031 60.57488 8439 ft 291 kts 130°
2026-05-06 10:04 56.65999 60.60616 9277 ft 291 kts 104°
2026-05-06 10:05 56.65794 60.64221 10014 ft 291 kts 79°
2026-05-06 10:05 56.66450 60.67680 10630 ft 297 kts 55°
2026-05-06 10:05 56.67835 60.70574 10875 ft 315 kts 39°
2026-05-06 10:05 56.68954 60.72376 10987 ft 329 kts 38°
2026-05-06 10:06 56.71221 60.76439 11252 ft 359 kts 45°
2026-05-06 10:06 56.72870 60.80000 11645 ft 374 kts 49°
2026-05-06 10:06 56.74466 60.83793 12231 ft 381 kts 50°
2026-05-06 10:06 56.76159 60.87461 12812 ft 384 kts 39°
2026-05-06 10:07 56.78362 60.90118 13420 ft 384 kts 21°
2026-05-06 10:07 56.80879 60.91516 13982 ft 385 kts
2026-05-06 10:07 56.83546 60.92554 14531 ft 392 kts 10°
2026-05-06 10:07 56.86189 60.93960 15031 ft 402 kts 19°
2026-05-06 10:08 56.88642 60.96478 15546 ft 413 kts 36°
2026-05-06 10:08 56.90670 61.00224 16104 ft 420 kts 53°
2026-05-06 10:08 56.92088 61.04894 16680 ft 422 kts 70°
2026-05-06 10:08 56.93030 61.09986 17257 ft 423 kts 75°
2026-05-06 10:09 56.93929 61.15106 17879 ft 425 kts 73°
2026-05-06 10:09 56.94928 61.20158 18681 ft 420 kts 72°
2026-05-06 10:09 56.96016 61.25119 19292 ft 422 kts 71°
2026-05-06 10:09 56.97163 61.30068 19914 ft 422 kts 70°
2026-05-06 10:10 56.98326 61.34982 20526 ft 421 kts 70°
2026-05-06 10:10 56.99492 61.39895 21094 ft 421 kts 71°
2026-05-06 10:10 57.00654 61.44802 21748 ft 419 kts 71°
2026-05-06 10:10 57.01796 61.49641 22365 ft 417 kts 71°
2026-05-06 10:11 57.02937 61.54494 23032 ft 414 kts 71°
2026-05-06 10:11 57.04074 61.59356 23464 ft 416 kts 70°
2026-05-06 10:11 57.05214 61.64236 24053 ft 415 kts 70°
2026-05-06 10:11 57.06346 61.69093 24692 ft 413 kts 70°
2026-05-06 10:12 57.07475 61.73944 25255 ft 414 kts 69°
2026-05-06 10:12 57.08602 61.78803 25793 ft 416 kts 69°
2026-05-06 10:12 57.09734 61.83694 26336 ft 418 kts 68°
2026-05-06 10:12 57.10870 61.88611 26908 ft 419 kts 67°
2026-05-06 10:13 57.12011 61.93561 27391 ft 422 kts 66°
2026-05-06 10:13 57.13149 61.98546 27875 ft 426 kts 67°
2026-05-06 10:13 57.14102 62.03725 28322 ft 431 kts 72°
2026-05-06 10:13 57.14896 62.08996 28726 ft 436 kts 71°
2026-05-06 10:14 57.15734 62.14381 29145 ft 440 kts 71°
2026-05-06 10:14 57.16584 62.19805 29627 ft 443 kts 71°
2026-05-06 10:14 57.17433 62.25249 30083 ft 446 kts 71°
2026-05-06 10:14 57.18279 62.30716 30945 ft 438 kts 71°
2026-05-06 10:15 57.19076 62.35903 31707 ft 434 kts 71°
2026-05-06 10:15 57.19903 62.41282 32052 ft 439 kts 71°
2026-05-06 10:15 57.20735 62.46719 32485 ft 442 kts 71°
2026-05-06 10:15 57.21568 62.52183 32883 ft 445 kts 71°
2026-05-06 10:16 57.22404 62.57686 33285 ft 449 kts 71°
2026-05-06 10:16 57.23245 62.63244 33691 ft 451 kts 72°
2026-05-06 10:16 57.24088 62.68830 34063 ft 455 kts 72°
2026-05-06 10:16 57.24934 62.74461 34437 ft 458 kts 72°
2026-05-06 10:17 57.25784 62.80137 34753 ft 463 kts 72°
2026-05-06 10:17 57.26632 62.85818 34749 ft 455 kts 72°
2026-05-06 10:17 57.28296 62.97039 34749 ft 455 kts 72°
2026-05-06 10:18 57.29957 63.08299 34748 ft 456 kts 72°
2026-05-06 10:18 57.31610 63.19585 34743 ft 456 kts 72°
2026-05-06 10:19 57.33248 63.30848 34748 ft 456 kts 72°
2026-05-06 10:19 57.34879 63.42147 34743 ft 456 kts 72°
2026-05-06 10:20 57.36503 63.53475 34747 ft 456 kts 72°
2026-05-06 10:20 57.38117 63.64809 34746 ft 456 kts 72°
2026-05-06 10:21 57.38920 63.76466 34747 ft 462 kts 87°
2026-05-06 10:21 57.37966 63.88298 34749 ft 470 kts 101°
2026-05-06 10:22 57.36295 63.99999 34745 ft 471 kts 100°
2026-05-06 10:22 57.34644 64.11708 34748 ft 471 kts 100°
2026-05-06 10:23 57.32972 64.23386 34744 ft 470 kts 101°
2026-05-06 10:23 57.31283 64.35065 34748 ft 471 kts 101°
2026-05-06 10:24 57.29589 64.46692 34748 ft 471 kts 101°
2026-05-06 10:24 57.27874 64.58377 34749 ft 471 kts 101°
2026-05-06 10:25 57.26164 64.69952 34748 ft 471 kts 101°
2026-05-06 10:25 57.24434 64.81585 34743 ft 471 kts 101°
2026-05-06 10:26 57.22691 64.93215 34744 ft 471 kts 101°
2026-05-06 10:26 57.20937 65.04838 34749 ft 471 kts 101°
2026-05-06 10:27 57.19173 65.16447 34748 ft 471 kts 101°
2026-05-06 10:27 57.17400 65.28048 34746 ft 471 kts 101°
2026-05-06 10:28 57.16327 65.39820 34748 ft 465 kts 92°
2026-05-06 10:28 57.15596 65.51645 34745 ft 466 kts 92°
2026-05-06 10:29 57.14838 65.63411 34746 ft 465 kts 93°
2026-05-06 10:29 57.14065 65.75225 34743 ft 465 kts 93°
2026-05-06 10:30 57.13282 65.87019 34745 ft 465 kts 93°
2026-05-06 10:30 57.12488 65.98808 34742 ft 466 kts 93°
2026-05-06 10:31 57.11682 66.10615 34748 ft 466 kts 93°
2026-05-06 10:31 57.10866 66.22421 34749 ft 466 kts 93°
2026-05-06 10:32 57.10041 66.34203 34742 ft 466 kts 93°
2026-05-06 10:32 57.09205 66.45991 34747 ft 466 kts 93°
2026-05-06 10:33 57.08357 66.57781 34749 ft 466 kts 94°
2026-05-06 10:33 57.07497 66.69561 34748 ft 466 kts 94°
2026-05-06 10:34 57.06627 66.81337 34749 ft 466 kts 94°
2026-05-06 10:34 57.05747 66.93093 34748 ft 466 kts 94°
2026-05-06 10:35 57.04751 67.04862 34747 ft 467 kts 95°
2026-05-06 10:35 57.03725 67.16610 34749 ft 467 kts 95°
2026-05-06 10:36 57.02702 67.28357 34749 ft 467 kts 95°
2026-05-06 10:36 57.01671 67.40095 34746 ft 467 kts 95°
2026-05-06 10:37 57.00627 67.51840 34747 ft 467 kts 95°
2026-05-06 10:37 56.99582 67.63474 34746 ft 467 kts 95°
2026-05-06 10:38 56.98517 67.75207 34743 ft 467 kts 95°
2026-05-06 10:38 56.97441 67.86925 34744 ft 467 kts 95°
2026-05-06 10:39 56.96353 67.98640 34749 ft 467 kts 95°
2026-05-06 10:39 56.95256 68.10344 34748 ft 467 kts 96°
2026-05-06 10:40 56.94146 68.22051 34744 ft 468 kts 96°
2026-05-06 10:40 56.93025 68.33760 34748 ft 468 kts 96°
2026-05-06 10:41 56.91894 68.45446 34742 ft 468 kts 96°
2026-05-06 10:41 56.90764 68.57000 34745 ft 468 kts 96°
2026-05-06 10:42 56.89614 68.68650 34748 ft 468 kts 96°
2026-05-06 10:42 56.88449 68.80325 34747 ft 468 kts 96°
2026-05-06 10:43 56.87273 68.92003 34746 ft 468 kts 96°
2026-05-06 10:44 56.85487 69.09515 34747 ft 468 kts 96°
2026-05-06 10:44 56.84285 69.21166 34747 ft 468 kts 96°
2026-05-06 10:45 56.83073 69.32788 34749 ft 468 kts 97°
2026-05-06 10:45 56.81846 69.44452 34746 ft 468 kts 97°
2026-05-06 10:46 56.80610 69.56091 34750 ft 468 kts 97°
2026-05-06 10:46 56.79362 69.67728 34748 ft 468 kts 97°
2026-05-06 10:47 56.78104 69.79358 34747 ft 468 kts 97°
2026-05-06 10:47 56.76835 69.90972 34745 ft 468 kts 97°
2026-05-06 10:48 56.75555 70.02586 34743 ft 468 kts 97°
2026-05-06 10:48 56.74265 70.14192 34744 ft 468 kts 97°
2026-05-06 10:49 56.72905 70.25778 34746 ft 469 kts 99°
2026-05-06 10:49 56.71489 70.37344 34749 ft 469 kts 98°
2026-05-06 10:50 56.70108 70.48909 34749 ft 469 kts 98°
2026-05-06 10:50 56.68695 70.60461 34748 ft 469 kts 98°
2026-05-06 10:51 56.67260 70.72009 34744 ft 469 kts 98°
2026-05-06 10:51 56.65814 70.83547 34747 ft 469 kts 98°
2026-05-06 10:52 56.64356 70.95092 34748 ft 470 kts 98°
2026-05-06 10:52 56.62886 71.06631 34742 ft 470 kts 99°
2026-05-06 10:53 56.61407 71.18156 34744 ft 470 kts 99°
2026-05-06 10:53 56.59919 71.29657 34748 ft 470 kts 99°
2026-05-06 10:54 56.58417 71.41176 34749 ft 470 kts 99°
2026-05-06 10:54 56.56904 71.52678 34748 ft 470 kts 99°
2026-05-06 10:55 56.55381 71.64173 34749 ft 470 kts 99°
2026-05-06 10:55 56.53849 71.75652 34748 ft 470 kts 99°
2026-05-06 10:56 56.52305 71.87134 34742 ft 470 kts 99°
2026-05-06 10:56 56.50751 71.98594 34742 ft 470 kts 99°
2026-05-06 10:57 56.49185 72.10058 34748 ft 470 kts 99°
2026-05-06 10:57 56.47610 72.21506 34744 ft 470 kts 99°
2026-05-06 10:58 56.46023 72.32950 34746 ft 470 kts 100°
2026-05-06 10:58 56.44424 72.44393 34747 ft 470 kts 100°
2026-05-06 10:59 56.42815 72.55823 34746 ft 470 kts 100°
2026-05-06 10:59 56.41198 72.67230 34746 ft 470 kts 100°
2026-05-06 11:00 56.39567 72.78650 34749 ft 470 kts 100°
2026-05-06 11:00 56.37928 72.90045 34749 ft 470 kts 100°
2026-05-06 11:01 56.36278 73.01430 34749 ft 470 kts 100°
2026-05-06 11:01 56.34614 73.12830 34747 ft 470 kts 100°
2026-05-06 11:02 56.32944 73.24195 34748 ft 471 kts 101°
2026-05-06 11:02 56.31260 73.35573 34749 ft 471 kts 101°
2026-05-06 11:03 56.29568 73.46920 34748 ft 471 kts 101°
2026-05-06 11:03 56.27863 73.58277 34748 ft 471 kts 101°
2026-05-06 11:04 56.26148 73.69623 34746 ft 471 kts 101°
2026-05-06 11:04 56.24427 73.80931 34746 ft 471 kts 101°
2026-05-06 11:05 56.22689 73.92253 34743 ft 471 kts 102°
2026-05-06 11:05 56.20667 74.03475 34742 ft 472 kts 103°
2026-05-06 11:06 56.18706 74.14612 34748 ft 472 kts 103°
2026-05-06 11:06 56.16700 74.25902 34747 ft 472 kts 103°
2026-05-06 11:07 56.14684 74.37086 34744 ft 472 kts 103°
2026-05-06 11:07 56.12653 74.48266 34745 ft 472 kts 103°
2026-05-06 11:08 56.10612 74.59430 34745 ft 472 kts 104°
2026-05-06 11:08 56.08561 74.70587 34747 ft 472 kts 104°
2026-05-06 11:09 56.06501 74.81726 34748 ft 472 kts 104°
2026-05-06 11:09 56.04428 74.92865 34743 ft 473 kts 104°
2026-05-06 11:10 56.02349 75.03974 34748 ft 473 kts 104°
2026-05-06 11:10 56.00251 75.15112 34748 ft 473 kts 104°
2026-05-06 11:11 55.98154 75.26186 34747 ft 473 kts 104°
2026-05-06 11:11 55.96042 75.37275 34745 ft 473 kts 104°
2026-05-06 11:12 55.93918 75.48361 34744 ft 473 kts 104°
2026-05-06 11:12 55.91784 75.59436 34748 ft 473 kts 104°
2026-05-06 11:13 55.89640 75.70502 34748 ft 473 kts 104°
2026-05-06 11:13 55.87486 75.81549 34745 ft 473 kts 104°
2026-05-06 11:14 55.85330 75.92551 34749 ft 473 kts 105°
2026-05-06 11:14 55.83155 76.03583 34747 ft 473 kts 105°
2026-05-06 11:15 55.80969 76.14610 34747 ft 473 kts 105°
2026-05-06 11:15 55.78773 76.25621 34748 ft 473 kts 105°
2026-05-06 11:16 55.76572 76.36601 34744 ft 474 kts 105°
2026-05-06 11:16 55.74357 76.47590 34745 ft 474 kts 105°
2026-05-06 11:17 55.72131 76.58568 34748 ft 474 kts 105°
2026-05-06 11:17 55.69897 76.69527 34747 ft 474 kts 105°
2026-05-06 11:18 55.67651 76.80484 34745 ft 474 kts 105°
2026-05-06 11:18 55.65393 76.91436 34747 ft 474 kts 105°
2026-05-06 11:19 55.63130 77.02360 34746 ft 474 kts 105°
2026-05-06 11:19 55.60855 77.13279 34747 ft 474 kts 105°
2026-05-06 11:20 55.58568 77.24193 34744 ft 474 kts 106°
2026-05-06 11:20 55.56275 77.35082 34745 ft 474 kts 106°
2026-05-06 11:21 55.53976 77.45936 34745 ft 474 kts 106°
2026-05-06 11:21 55.51658 77.56828 34748 ft 474 kts 106°
2026-05-06 11:22 55.49330 77.67706 34745 ft 474 kts 106°
2026-05-06 11:22 55.47010 77.78485 34747 ft 474 kts 106°
2026-05-06 11:23 55.44666 77.89321 34745 ft 474 kts 106°
2026-05-06 11:23 55.42312 78.00148 34747 ft 474 kts 106°
2026-05-06 11:24 55.39949 78.10958 34744 ft 474 kts 107°
2026-05-06 11:24 55.37577 78.21768 34747 ft 474 kts 107°
2026-05-06 11:25 55.35528 78.32697 34746 ft 469 kts 97°
2026-05-06 11:25 55.34594 78.43955 34746 ft 467 kts 94°
2026-05-06 11:26 55.33707 78.55219 34749 ft 467 kts 94°
2026-05-06 11:26 55.32795 78.66485 34746 ft 467 kts 94°
2026-05-06 11:27 55.31870 78.77728 34744 ft 467 kts 94°
2026-05-06 11:27 55.30935 78.88980 34747 ft 467 kts 94°
2026-05-06 11:28 55.29989 79.00220 34749 ft 467 kts 94°
2026-05-06 11:28 55.29031 79.11480 34747 ft 467 kts 94°
2026-05-06 11:29 55.28458 79.18157 34744 ft 467 kts 94°
2026-05-06 11:33 55.28263 79.20417 34747 ft 467 kts 94°
2026-05-06 11:33 55.27289 79.31648 34748 ft 467 kts 95°
2026-05-06 11:34 55.26306 79.42856 34738 ft 467 kts 95°
2026-05-06 11:34 55.25806 79.48499 34528 ft 467 kts 95°
2026-05-06 11:34 55.25309 79.54084 34281 ft 466 kts 95°
2026-05-06 11:34 55.24808 79.59683 34020 ft 464 kts 95°
2026-05-06 11:35 55.24308 79.65232 33783 ft 462 kts 95°
2026-05-06 11:35 55.23805 79.70800 33541 ft 461 kts 95°
2026-05-06 11:35 55.23303 79.76318 33283 ft 458 kts 95°
2026-05-06 11:35 55.22803 79.81793 33031 ft 457 kts 95°
2026-05-06 11:36 55.22304 79.87228 32787 ft 455 kts 95°
2026-05-06 11:36 55.21801 79.92680 32537 ft 453 kts 95°
2026-05-06 11:36 55.21299 79.98085 32219 ft 451 kts 95°
2026-05-06 11:36 55.20794 80.03511 31618 ft 450 kts 95°
2026-05-06 11:37 55.20290 80.08888 31045 ft 447 kts 95°
2026-05-06 11:37 55.19788 80.14213 30476 ft 442 kts 95°
2026-05-06 11:37 55.19296 80.19407 29915 ft 438 kts 95°
2026-05-06 11:37 55.18803 80.24589 29359 ft 433 kts 95°
2026-05-06 11:38 55.18305 80.29802 28778 ft 429 kts 95°
2026-05-06 11:38 55.17816 80.34904 28243 ft 424 kts 95°
2026-05-06 11:38 55.17332 80.39944 27692 ft 419 kts 96°
2026-05-06 11:38 55.16850 80.44925 27152 ft 413 kts 97°
2026-05-06 11:39 55.16372 80.49842 26619 ft 408 kts 97°
2026-05-06 11:39 55.15901 80.54681 26090 ft 402 kts 98°
2026-05-06 11:39 55.15433 80.59461 25569 ft 396 kts 99°
2026-05-06 11:39 55.14970 80.64164 25052 ft 391 kts 99°
2026-05-06 11:40 55.14512 80.68801 24539 ft 385 kts 100°
2026-05-06 11:40 55.14059 80.73373 24038 ft 380 kts 101°
2026-05-06 11:40 55.13610 80.77885 23525 ft 375 kts 101°
2026-05-06 11:40 55.13164 80.82346 23046 ft 371 kts 102°
2026-05-06 11:41 55.12724 80.86730 22536 ft 367 kts 103°
2026-05-06 11:41 55.12285 80.91092 22051 ft 364 kts 103°
2026-05-06 11:41 55.11861 80.95384 21564 ft 362 kts 101°
2026-05-06 11:41 55.11702 80.99767 21066 ft 363 kts 94°
2026-05-06 11:42 55.11741 81.04159 20590 ft 362 kts 94°
2026-05-06 11:42 55.11770 81.08537 20076 ft 361 kts 94°
2026-05-06 11:42 55.11789 81.12905 19584 ft 361 kts 94°
2026-05-06 11:42 55.11803 81.17253 19090 ft 362 kts 94°
2026-05-06 11:43 55.11814 81.21683 18581 ft 363 kts 94°
2026-05-06 11:43 55.11823 81.26082 18077 ft 363 kts 94°
2026-05-06 11:43 55.11831 81.30495 17565 ft 364 kts 94°
2026-05-06 11:44 55.11843 81.39353 16539 ft 365 kts 92°
2026-05-06 11:44 55.11847 81.43782 16027 ft 365 kts 92°
2026-05-06 11:44 55.11849 81.48201 15511 ft 365 kts 92°
2026-05-06 11:44 55.11850 81.52634 15003 ft 365 kts 91°
2026-05-06 11:45 55.11849 81.57046 14480 ft 364 kts 91°
2026-05-06 11:45 55.11847 81.61464 13971 ft 363 kts 90°
2026-05-06 11:45 55.11843 81.65851 13466 ft 362 kts 90°
2026-05-06 11:45 55.11837 81.70227 12967 ft 361 kts 89°
2026-05-06 11:46 55.11830 81.74602 12458 ft 358 kts 89°
2026-05-06 11:46 55.11821 81.78932 11951 ft 356 kts 89°
2026-05-06 11:46 55.11811 81.83228 11458 ft 354 kts 88°
2026-05-06 11:46 55.11800 81.87445 10969 ft 351 kts 88°
2026-05-06 11:47 55.11787 81.91702 10476 ft 347 kts 88°
2026-05-06 11:47 55.11772 81.95878 10091 ft 341 kts 88°
2026-05-06 11:47 55.11756 81.99931 9957 ft 327 kts 88°
2026-05-06 11:47 55.11738 82.03805 9837 ft 314 kts 88°
2026-05-06 11:48 55.11721 82.07542 9710 ft 303 kts 87°
2026-05-06 11:48 55.11705 82.11180 9488 ft 299 kts 87°
2026-05-06 11:48 55.11688 82.14780 9183 ft 295 kts 87°
2026-05-06 11:48 55.11671 82.18349 8720 ft 296 kts 87°
2026-05-06 11:49 55.11652 82.21908 8527 ft 291 kts 87°
2026-05-06 11:49 55.11633 82.25427 8258 ft 291 kts 87°
2026-05-06 11:49 55.11611 82.28912 7952 ft 286 kts 88°
2026-05-06 11:49 55.11589 82.32379 7476 ft 288 kts 88°
2026-05-06 11:50 55.11566 82.35836 7266 ft 285 kts 88°
2026-05-06 11:50 55.11542 82.39290 7031 ft 284 kts 88°
2026-05-06 11:50 55.11555 82.42702 6664 ft 281 kts 83°
2026-05-06 11:50 55.11889 82.46068 6214 ft 280 kts 74°
2026-05-06 11:51 55.12300 82.49377 5908 ft 279 kts 75°
2026-05-06 11:51 55.12688 82.52686 5508 ft 278 kts 76°
2026-05-06 11:51 55.13067 82.55988 5098 ft 278 kts 76°
2026-05-06 11:51 55.13543 82.59235 4705 ft 276 kts 71°
2026-05-06 11:52 55.14083 82.62433 4315 ft 275 kts 71°
2026-05-06 11:52 55.14614 82.65629 3940 ft 273 kts 71°
2026-05-06 11:52 55.15139 82.68811 3555 ft 272 kts 71°
2026-05-06 11:52 55.15656 82.71970 3051 ft 273 kts 74°
2026-05-06 11:53 55.15927 82.75192 2798 ft 262 kts 86°
2026-05-06 11:53 55.15916 82.78237 2937 ft 243 kts 87°
2026-05-06 11:53 55.15937 82.81134 3025 ft 236 kts 86°
2026-05-06 11:53 55.15965 82.83988 2994 ft 236 kts 90°
2026-05-06 11:54 55.15538 82.86553 3008 ft 241 kts 120°
2026-05-06 11:54 55.14363 82.88582 2894 ft 232 kts 155°
2026-05-06 11:54 55.12870 82.89444 2663 ft 226 kts 174°
2026-05-06 11:54 55.11308 82.89653 2584 ft 224 kts 188°
2026-05-06 11:55 55.09779 82.89214 2513 ft 222 kts 196°
2026-05-06 11:55 55.08262 82.88720 2245 ft 222 kts 192°
2026-05-06 11:55 55.06736 82.88373 2034 ft 219 kts 189°
2026-05-06 11:55 55.05253 82.88105 1988 ft 208 kts 190°
2026-05-06 11:56 55.03957 82.87544 1985 ft 181 kts 221°
2026-05-06 11:56 55.03258 82.85887 2020 ft 168 kts 250°
2026-05-06 11:56 55.02958 82.83924 1989 ft 168 kts 259°
2026-05-06 11:56 55.02795 82.82000 1985 ft 154 kts 261°
2026-05-06 11:57 55.02630 82.80245 1777 ft 139 kts 260°
2026-05-06 11:57 55.02486 82.78639 1596 ft 131 kts 261°
2026-05-06 11:57 55.02340 82.77073 1414 ft 131 kts 261°
2026-05-06 11:57 55.02195 82.75497 1243 ft 132 kts 260°
2026-05-06 11:58 55.02051 82.73892 1075 ft 136 kts 261°
2026-05-06 11:58 55.01897 82.72240 906 ft 141 kts 261°
2026-05-06 11:58 55.01743 82.70540 722 ft 141 kts 261°
2026-05-06 11:58 55.01591 82.68874 535 ft 138 kts 261°
2026-05-06 11:59 55.01447 82.67243 378 ft 135 kts 260°
2026-05-06 11:59 55.01312 82.65890 378 ft 94 kts 264°
2026-05-06 11:59 55.01245 82.65014 377 ft 46 kts 261°
2026-05-06 11:59 55.01199 82.64480 377 ft 43 kts 261°
2026-05-06 12:00 55.01136 82.64024 380 ft 27 kts 212°
2026-05-06 12:00 55.00961 82.64021 378 ft 26 kts 172°
2026-05-06 12:00 55.00789 82.64051 378 ft 24 kts 167°
2026-05-06 12:00 55.00684 82.64079 378 ft 0 kts 172°